Location: Milton Keynes
(52.0316°N, 0.7531°W)
Time: 19:18:45
(UTC+00:00)

ISS - Pass Details

Date: 30 January 2019
Orbit: 403 x 411 km, 51.6° (Epoch: 21 February)

Event Time Altitude Azimuth Distance (km) Brightness Sun altitude
Rises 17:58:56 0° 254° (WSW) 2,332 2.3 -11.2°
Reaches altitude 10° 18:01:01 10° 252° (WSW) 1,474 0.6 -11.5°
Maximum altitude 18:04:19 72° 169° (SSE) 436 -3.7 -12.0°
Enters shadow 18:06:22 21° 87° (E) 979 -2.5 -12.3°
